Surface/Precipitation History
02/13/2016 09:52  to  2/14/2016 09:52
Change End Date:
Date/Time
(MST)
Sf
Temp Chem Water Layer Surface Precipitation
Sfc Pvt Sub Frz Factor Pct Dpth DpthThk IcePct Cond Salin FI Type Intens Accum Rate
02/14/2016 09:41 Ice Warning 30.9F - - 32F 95 0% - - 94% 1 mhos 139 - None None - -
02/14/2016 09:39 Ice Warning 30.7F - - 32F 95 1% - - 94% 2 mhos 173 - None None - -
02/14/2016 09:29 Ice Warning 30.4F - - 32F 95 1% - - 91% 3 mhos 319 - None None - -
02/14/2016 09:26 Ice Warning 30.4F - - 32F 95 1% - - 91% 3 mhos 309 - None None - -
02/14/2016 09:18 Ice Warning 30.4F - - 32F 95 1% - - 95% 2 mhos 198 - None None - -
02/14/2016 09:11 Ice Warning 29.8F - - 32F 95 0% - - 99% 0 mhos 43 - None None - -
02/14/2016 09:08 Ice Warning 29.8F - - 32F 95 0% - - 99% 0 mhos 35 - None None - -
02/14/2016 08:58 Ice Warning 29.3F - - 32F 80 0% - - 100% 0 mhos 13 - None None - -
02/14/2016 08:56 Ice Warning 29.3F - - 32F 70 0% - - 100% 0 mhos 11 - Yes - - -
02/14/2016 08:48 Ice Warning 29.3F - - 32F 55 0% - - 100% 0 mhos 10 - None None - -
02/14/2016 08:41 Ice Warning 29.3F - - 32F 50 0% - - 100% 0 mhos 9 - None None - -
02/14/2016 08:38 Ice Warning 29.3F - - 32F 40 0% - - 100% 0 mhos 10 - None None - -
02/14/2016 08:28 Ice Warning 29.5F - - 32F 45 0% - - 100% 0 mhos 11 - Yes - - -
02/14/2016 08:26 Ice Warning 29.3F - - 32F 45 0% - - 100% 0 mhos 11 - Yes - - -
02/14/2016 08:18 Ice Warning 29.3F - - 32F 45 0% - - 100% 0 mhos 11 - None None - -
Date/Time
(MST)
Sf
Temp Chem Water Layer Surface Precipitation
Sfc Pvt Sub Frz Factor Pct Dpth DpthThk IcePct Cond Salin FI Type Intens Accum Rate
02/14/2016 08:11 Ice Warning 29.1F - - 32F 45 0% - - 100% 0 mhos 11 - Yes - - -
02/14/2016 08:08 Ice Warning 28.9F - - 32F 15 0% - - 100% 0 mhos 12 - Yes - - -
02/14/2016 07:58 Ice Warning 28.2F - - 32F 15 0% - - 100% 0 mhos 13 - None None - -
02/14/2016 07:55 Ice Warning 28.0F - - 32F 10 0% - - 100% 0 mhos 13 - Yes - - -
02/14/2016 07:48 Ice Warning 28.2F - - 32F 10 0% - - 100% 0 mhos 13 - Yes - - -
02/14/2016 07:41 Ice Warning 28.2F - - 32F 10 0% - - 100% 0 mhos 14 - Yes - - -
02/14/2016 07:38 Ice Warning 28.2F - - 32F 10 0% - - 100% 0 mhos 14 - Yes - - -
02/14/2016 07:28 Ice Warning 28.0F - - 32F 10 0% - - 100% 0 mhos 15 - None None - -
02/14/2016 07:26 Ice Warning 28.0F - - 32F 10 0% - - 100% 0 mhos 16 - None None - -
02/14/2016 07:18 Ice Warning 27.5F - - 32F 10 0% - - 100% 0 mhos 15 - None None - -
02/14/2016 07:11 Ice Warning 27.0F - - 32F 10 0% - - 100% 0 mhos 15 - None None - -
02/14/2016 07:08 Ice Warning 27.0F - - 32F 10 0% - - 100% 0 mhos 15 - None None - -
02/14/2016 06:58 Ice Warning 26.8F - - 32F 5 0% - - 100% 0 mhos 14 - None None - -
02/14/2016 06:56 Ice Warning 27.0F - - 32F 5 0% - - 100% 0 mhos 14 - None None - -
02/14/2016 06:48 Ice Warning 27.1F - - 32F 5 0% - - 100% 0 mhos 13 - None None - -
Date/Time
(MST)
Sf
Temp Chem Water Layer Surface Precipitation
Sfc Pvt Sub Frz Factor Pct Dpth DpthThk IcePct Cond Salin FI Type Intens Accum Rate
02/14/2016 06:41 Ice Warning 27.5F - - 32F 5 0% - - 100% 0 mhos 13 - None None - -
02/14/2016 06:38 Ice Warning 27.7F - - 32F 5 0% - - 100% 0 mhos 13 - None None - -
02/14/2016 06:28 Ice Warning 27.5F - - 32F 5 0% - - 100% 0 mhos 14 - None None - -
02/14/2016 06:26 Ice Warning 27.3F - - 32F 5 0% - - 100% 0 mhos 14 - None None - -
02/14/2016 06:18 Ice Warning 27.5F - - 32F 5 0% - - 100% 0 mhos 13 - Yes - - -
02/14/2016 06:11 Ice Warning 27.9F - - 32F 5 0% - - 100% 0 mhos 13 - None None - -
02/14/2016 06:08 Ice Warning 27.9F - - 32F 5 0% - - 100% 0 mhos 13 - None None - -
02/14/2016 05:58 Ice Warning 27.7F - - 32F 5 0% - - 100% 0 mhos 13 - None None - -
02/14/2016 05:56 Ice Warning 27.5F - - 32F 5 0% - - 100% 0 mhos 13 - None None - -
02/14/2016 05:48 Ice Warning 27.5F - - 32F 5 0% - - 100% 0 mhos 13 - None None - -
02/14/2016 05:41 Ice Warning 27.1F - - 32F 5 0% - - 100% 0 mhos 13 - None None - -
02/14/2016 05:38 Ice Warning 27.3F - - 32F 5 0% - - 100% 0 mhos 13 - None None - -
02/14/2016 05:28 Ice Warning 27.1F - - 32F 5 0% - - 100% 0 mhos 12 - Yes - - -
02/14/2016 05:26 Ice Warning 26.8F - - 32F 5 0% - - 100% 0 mhos 12 - None None - -
02/14/2016 05:18 Ice Warning 27.0F - - 32F 5 0% - - 100% 0 mhos 12 - None None - -
Date/Time
(MST)
Sf
Temp Chem Water Layer Surface Precipitation
Sfc Pvt Sub Frz Factor Pct Dpth DpthThk IcePct Cond Salin FI Type Intens Accum Rate
02/14/2016 05:11 Ice Warning 27.1F - - 32F 5 0% - - 100% 0 mhos 12 - None None - -
02/14/2016 05:08 Ice Warning 27.1F - - 32F 5 0% - - 100% 0 mhos 12 - None None - -
02/14/2016 04:58 Ice Warning 27.7F - - 32F 5 0% - - 100% 0 mhos 12 - None None - -
02/14/2016 04:56 Ice Warning 27.9F - - 32F 5 0% - - 100% 0 mhos 12 - None None - -
02/14/2016 04:48 Ice Warning 28.0F - - 32F 5 0% - - 100% 0 mhos 12 - Yes - - -
02/14/2016 04:41 Ice Warning 27.7F - - 32F 5 0% - - 100% 0 mhos 12 - None None - -
02/14/2016 04:38 Ice Warning 27.3F - - 32F 5 0% - - 100% 0 mhos 12 - None None - -
02/14/2016 04:28 Ice Warning 27.5F - - 32F 5 0% - - 100% 0 mhos 13 - None None - -
02/14/2016 04:26 Ice Warning 27.3F - - 32F 5 0% - - 100% 0 mhos 12 - None None - -
02/14/2016 04:18 Ice Warning 27.1F - - 32F 5 0% - - 100% 0 mhos 12 - None None - -
02/14/2016 04:11 Ice Warning 27.0F - - 32F 5 0% - - 100% 0 mhos 12 - None None - -
02/14/2016 04:08 Ice Warning 27.0F - - 32F 5 0% - - 100% 0 mhos 12 - None None - -
02/14/2016 03:58 Ice Warning 26.8F - - 32F 5 0% - - 100% 0 mhos 8 - None None - -
02/14/2016 03:56 Ice Warning 26.6F - - 32F 5 0% - - 100% 0 mhos 8 - None None - -
02/14/2016 03:48 Ice Warning 26.4F - - 32F 5 0% - - 100% 0 mhos 8 - Yes - - -
Date/Time
(MST)
Sf
Temp Chem Water Layer Surface Precipitation
Sfc Pvt Sub Frz Factor Pct Dpth DpthThk IcePct Cond Salin FI Type Intens Accum Rate
02/14/2016 03:41 Ice Warning 26.1F - - 32F 5 0% - - 100% 0 mhos 7 - None None - -
02/14/2016 03:37 Ice Warning 25.9F - - 32F 5 0% - - 100% 0 mhos 7 - None None - -
02/14/2016 03:27 Ice Warning 26.1F - - 32F 5 0% - - 100% 0 mhos 7 - None None - -
02/14/2016 03:26 Ice Warning 26.1F - - 32F 5 0% - - 100% 0 mhos 7 - None None - -
02/14/2016 03:17 Ice Warning 26.6F - - 32F 5 0% - - 100% 0 mhos 7 - None None - -
02/14/2016 03:12 Ice Warning 27.0F - - 32F 5 0% - - 100% 0 mhos 7 - None None - -
02/14/2016 03:07 Ice Warning 27.1F - - 32F 5 0% - - 100% 0 mhos 7 - None None - -
02/14/2016 02:57 Ice Warning 27.9F - - 32F 5 0% - - 100% 0 mhos 6 - None None - -
02/14/2016 02:56 Ice Warning 27.9F - - 32F 5 0% - - 100% 0 mhos 6 - None None - -
02/14/2016 02:47 Ice Warning 28.4F - - 32F 5 0% - - 100% 0 mhos 6 - None None - -
02/14/2016 02:41 Ice Warning 28.8F - - 32F 5 0% - - 100% 0 mhos 6 - None None - -
02/14/2016 02:37 Ice Warning 28.8F - - 32F 5 0% - - 100% 0 mhos 6 - None None - -
02/14/2016 02:27 Ice Warning 29.3F - - 32F 5 0% - - 100% 0 mhos 5 - None None - -
02/14/2016 02:26 Ice Warning 29.3F - - 32F 10 0% - - 100% 0 mhos 5 - None None - -
02/14/2016 02:17 Ice Warning 29.8F - - 32F 10 0% - - 100% 0 mhos 5 - None None - -
Date/Time
(MST)
Sf
Temp Chem Water Layer Surface Precipitation
Sfc Pvt Sub Frz Factor Pct Dpth DpthThk IcePct Cond Salin FI Type Intens Accum Rate
02/14/2016 02:11 Ice Warning 29.8F - - 32F 10 0% - - 100% 0 mhos 5 - None None - -
02/14/2016 02:07 Ice Warning 29.8F - - 32F 10 0% - - 100% 0 mhos 5 - Yes - - -
02/14/2016 01:57 Ice Warning 30.0F - - 32F 5 0% - - 100% 0 mhos 5 - Yes - - -
02/14/2016 01:56 Ice Warning 30.0F - - 32F 10 0% - - 100% 0 mhos 6 - Yes - - -
02/14/2016 01:47 Ice Warning 30.0F - - 32F 10 0% - - 100% 0 mhos 5 - Yes - - -
02/14/2016 01:41 Ice Warning 29.8F - - 32F 10 0% - - 100% 0 mhos 5 - Yes - - -
02/14/2016 01:37 Ice Warning 29.8F - - 32F 10 0% - - 100% 0 mhos 5 - Yes - - -
02/14/2016 01:27 Ice Warning 29.8F - - 32F 15 0% - - 100% 0 mhos 6 - Yes - - -
02/14/2016 01:26 Ice Warning 29.8F - - 32F 15 0% - - 100% 0 mhos 6 - Yes - - -
02/14/2016 01:17 Ice Warning 29.8F - - 32F 10 0% - - 100% 0 mhos 5 - Yes - - -
02/14/2016 01:11 Ice Warning 29.8F - - 32F 10 0% - - 100% 0 mhos 5 - Yes - - -
02/14/2016 01:07 Ice Warning 29.8F - - 32F 10 0% - - 100% 0 mhos 5 - Yes - - -
02/14/2016 00:57 Ice Warning 29.8F - - 32F 10 0% - - 100% 0 mhos 5 - None None - -
02/14/2016 00:56 Ice Warning 29.8F - - 32F 10 0% - - 100% 0 mhos 5 - Yes - - -
02/14/2016 00:47 Ice Warning 29.8F - - 32F 20 0% - - 100% 0 mhos 6 - Yes - - -
Date/Time
(MST)
Sf
Temp Chem Water Layer Surface Precipitation
Sfc Pvt Sub Frz Factor Pct Dpth DpthThk IcePct Cond Salin FI Type Intens Accum Rate
02/14/2016 00:41 Ice Warning 29.8F - - 32F 20 0% - - 100% 0 mhos 6 - Yes - - -
02/14/2016 00:37 Ice Warning 29.8F - - 32F 20 0% - - 100% 0 mhos 6 - Yes - - -
02/14/2016 00:27 Ice Warning 29.7F - - 32F 20 0% - - 100% 0 mhos 6 - Yes - - -
02/14/2016 00:26 Ice Warning 29.7F - - 32F 20 0% - - 100% 0 mhos 6 - Yes - - -
02/14/2016 00:17 Ice Warning 29.7F - - 32F 20 0% - - 100% 0 mhos 5 - Yes - - -
02/14/2016 00:11 Ice Warning 29.7F - - 32F 20 0% - - 100% 0 mhos 5 - Yes - - -
02/14/2016 00:07 Ice Warning 29.7F - - 32F 20 0% - - 100% 0 mhos 5 - Yes - - -
02/13/2016 23:57 Ice Warning 29.8F - - 32F 20 0% - - 100% 0 mhos 5 - Yes - - -
02/13/2016 23:56 Ice Warning 29.8F - - 32F 20 0% - - 100% 0 mhos 5 - Yes - - -
02/13/2016 23:47 Ice Warning 30.0F - - 32F 20 0% - - 100% 0 mhos 5 - Yes - - -
02/13/2016 23:41 Ice Warning 30.0F - - 32F 25 0% - - 100% 0 mhos 5 - Yes - - -
02/13/2016 23:37 Ice Warning 30.0F - - 32F 30 0% - - 100% 0 mhos 5 - Yes - - -
02/13/2016 23:27 Ice Warning 30.2F - - 32F 45 0% - - 100% 0 mhos 6 - Yes - - -
02/13/2016 23:26 Ice Warning 30.2F - - 32F 45 0% - - 100% 0 mhos 6 - Yes - - -
02/13/2016 23:17 Ice Warning 30.0F - - 32F 45 0% - - 100% 0 mhos 7 - Yes - - -
Date/Time
(MST)
Sf
Temp Chem Water Layer Surface Precipitation
Sfc Pvt Sub Frz Factor Pct Dpth DpthThk IcePct Cond Salin FI Type Intens Accum Rate
02/13/2016 23:11 Ice Warning 29.8F - - 32F 40 0% - - 100% 0 mhos 7 - Yes - - -
02/13/2016 23:07 Ice Warning 29.8F - - 32F 40 0% - - 100% 0 mhos 9 - Yes - - -
02/13/2016 22:57 Ice Warning 29.7F - - 32F 35 0% - - 100% 0 mhos 7 - Yes - - -
02/13/2016 22:56 Ice Warning 29.7F - - 32F 40 0% - - 100% 0 mhos 7 - Yes - - -
02/13/2016 22:47 Ice Warning 30.2F - - 32F 5 0% - - 100% 0 mhos 6 - None None - -
02/13/2016 22:41 Dry 30.6F - - - - - - - - 0 mhos 1 - None None - -
02/13/2016 22:37 Dry 30.7F - - - - - - - - 0 mhos 1 - None None - -
02/13/2016 22:27 Dry 30.7F - - - - - - - - 0 mhos 1 - None None - -
02/13/2016 22:26 Dry 30.9F - - - - - - - - 0 mhos 1 - None None - -
02/13/2016 22:17 Dry 30.4F - - - - - - - - 0 mhos 1 - None None - -
02/13/2016 22:11 Dry 30.4F - - - - - - - - 0 mhos 1 - None None - -
02/13/2016 22:07 Dry 29.8F - - - - - - - - 0 mhos 1 - None None - -
02/13/2016 21:56 Dry 29.8F - - - - - - - - 0 mhos 1 - None None - -
02/13/2016 21:56 Dry 29.8F - - - - - - - - 0 mhos 1 - None None - -
02/13/2016 21:46 Dry 29.8F - - - - - - - - 0 mhos 1 - None None - -
Date/Time
(MST)
Sf
Temp Chem Water Layer Surface Precipitation
Sfc Pvt Sub Frz Factor Pct Dpth DpthThk IcePct Cond Salin FI Type Intens Accum Rate
02/13/2016 21:41 Dry 29.7F - - - - - - - - 0 mhos 1 - None None - -
02/13/2016 21:36 Dry 29.8F - - - - - - - - 0 mhos 1 - None None - -
02/13/2016 21:26 Dry 30.4F - - - - - - - - 0 mhos 1 - None None - -
02/13/2016 21:26 Dry 30.4F - - - - - - - - 0 mhos 1 - None None - -
02/13/2016 21:16 Dry 30.7F - - - - - - - - 0 mhos 1 - None None - -
02/13/2016 21:11 Dry 30.7F - - - - - - - - 0 mhos 1 - None None - -
02/13/2016 21:06 Dry 30.9F - - - - - - - - 0 mhos 1 - None None - -
02/13/2016 20:56 Dry 31.3F - - - - - - - - 0 mhos 1 - None None - -
02/13/2016 20:56 Dry 31.3F - - - - - - - - 0 mhos 1 - None None - -
02/13/2016 20:46 Dry 31.5F - - - - - - - - 0 mhos 1 - None None - -
02/13/2016 20:41 Dry 31.3F - - - - - - - - 0 mhos 1 - None None - -
02/13/2016 20:36 Dry 31.1F - - - - - - - - 0 mhos 1 - None None - -
02/13/2016 20:26 Dry 31.3F - - - - - - - - 0 mhos 1 - None None - -
02/13/2016 20:26 Dry 31.3F - - - - - - - - 0 mhos 1 - None None - -
02/13/2016 20:16 Dry 31.6F - - - - - - - - 0 mhos 1 - None None - -
Date/Time
(MST)
Sf
Temp Chem Water Layer Surface Precipitation
Sfc Pvt Sub Frz Factor Pct Dpth DpthThk IcePct Cond Salin FI Type Intens Accum Rate
02/13/2016 20:11 Dry 31.6F - - - - - - - - 0 mhos 1 - None None - -
02/13/2016 20:06 Dry 31.8F - - - - - - - - 0 mhos 1 - None None - -
02/13/2016 19:56 Dry 32.4F - - - - - - - - 0 mhos 1 - None None - -
02/13/2016 19:56 Dry 32.4F - - - - - - - - 0 mhos 1 - None None - -
02/13/2016 19:46 Dry 32.5F - - - - - - - - 0 mhos 1 - None None - -
02/13/2016 19:41 Dry 32.5F - - - - - - - - 0 mhos 1 - None None - -
02/13/2016 19:36 Dry 32.5F - - - - - - - - 0 mhos 1 - None None - -
02/13/2016 19:26 Dry 33.1F - - - - - - - - 0 mhos 1 - None None - -
02/13/2016 19:26 Dry 33.1F - - - - - - - - 0 mhos 1 - None None - -
02/13/2016 19:16 Dry 33.6F - - - - - - - - 0 mhos 1 - None None - -
02/13/2016 19:11 Dry 34.0F - - - - - - - - 0 mhos 1 - None None - -
02/13/2016 19:06 Dry 34.3F - - - - - - - - 0 mhos 1 - None None - -
02/13/2016 18:56 Dry 34.7F - - - - - - - - 0 mhos 1 - None None - -
02/13/2016 18:56 Dry 34.7F - - - - - - - - 0 mhos 1 - None None - -
02/13/2016 18:46 Dry 34.9F - - - - - - - - 0 mhos 1 - None None - -
Date/Time
(MST)
Sf
Temp Chem Water Layer Surface Precipitation
Sfc Pvt Sub Frz Factor Pct Dpth DpthThk IcePct Cond Salin FI Type Intens Accum Rate
02/13/2016 18:41 Dry 35.1F - - - - - - - - 0 mhos 1 - None None - -
02/13/2016 18:36 Dry 35.1F - - - - - - - - 0 mhos 1 - None None - -
02/13/2016 18:26 Dry 35.2F - - - - - - - - 0 mhos 1 - None None - -
02/13/2016 18:26 Dry 35.2F - - - - - - - - 0 mhos 1 - None None - -
02/13/2016 18:16 Dry 35.4F - - - - - - - - 0 mhos 1 - None None - -
02/13/2016 18:11 Dry 35.8F - - - - - - - - 0 mhos 1 - None None - -
02/13/2016 18:06 Dry 36.0F - - - - - - - - 0 mhos 1 - None None - -
02/13/2016 17:56 Dry 36.3F - - - - - - - - 0 mhos 1 - None None - -
02/13/2016 17:56 Dry 36.3F - - - - - - - - 0 mhos 1 - None None - -
02/13/2016 17:46 Dry 36.9F - - - - - - - - 0 mhos 1 - None None - -
02/13/2016 17:41 Dry 37.0F - - - - - - - - 0 mhos 1 - None None - -
02/13/2016 17:36 Dry 37.4F - - - - - - - - 0 mhos 1 - None None - -
02/13/2016 17:26 Dry 38.1F - - - - - - - - 0 mhos 1 - None None - -
02/13/2016 17:26 Dry 38.1F - - - - - - - - 0 mhos 1 - None None - -
02/13/2016 17:16 Dry 39.0F - - - - - - - - 0 mhos 1 - None None - -
Date/Time
(MST)
Sf
Temp Chem Water Layer Surface Precipitation
Sfc Pvt Sub Frz Factor Pct Dpth DpthThk IcePct Cond Salin FI Type Intens Accum Rate
02/13/2016 17:11 Dry 39.6F - - - - - - - - 0 mhos 1 - None None - -
02/13/2016 17:06 Dry 40.1F - - - - - - - - 0 mhos 1 - None None - -
02/13/2016 16:56 Dry 41.5F - - - - - - - - 0 mhos 1 - None None - -
02/13/2016 16:55 Dry 41.5F - - - - - - - - 0 mhos 1 - None None - -
02/13/2016 16:45 Dry 43.2F - - - - - - - - 0 mhos 1 - None None - -
02/13/2016 16:41 Dry 42.6F - - - - - - - - 0 mhos 1 - None None - -
02/13/2016 16:35 Dry 43.7F - - - - - - - - 0 mhos 1 - None None - -
02/13/2016 16:26 Dry 45.7F - - - - - - - - 0 mhos 1 - None None - -
02/13/2016 16:25 Dry 45.3F - - - - - - - - 0 mhos 1 - None None - -
02/13/2016 16:15 Dry 47.8F - - - - - - - - 0 mhos 1 - None None - -
02/13/2016 16:11 Dry 49.3F - - - - - - - - 0 mhos 1 - None None - -
02/13/2016 16:05 Dry 50.9F - - - - - - - - 0 mhos 1 - None None - -
02/13/2016 15:56 Dry 57.0F - - - - - - - - 0 mhos 1 - None None - -
02/13/2016 15:55 Dry 57.0F - - - - - - - - 0 mhos 1 - None None - -
02/13/2016 15:45 Dry 57.0F - - - - - - - - 0 mhos 1 - None None - -
Date/Time
(MST)
Sf
Temp Chem Water Layer Surface Precipitation
Sfc Pvt Sub Frz Factor Pct Dpth DpthThk IcePct Cond Salin FI Type Intens Accum Rate
02/13/2016 15:41 Dry 59.0F - - - - - - - - 0 mhos 1 - None None - -
02/13/2016 15:35 Dry 59.0F - - - - - - - - 0 mhos 1 - None None - -
02/13/2016 15:26 Dry 56.5F - - - - - - - - 0 mhos 1 - None None - -
02/13/2016 15:25 Dry 56.5F - - - - - - - - 0 mhos 1 - None None - -
02/13/2016 15:15 Dry 56.5F - - - - - - - - 0 mhos 1 - None None - -
02/13/2016 15:11 Dry 58.1F - - - - - - - - 0 mhos 1 - None None - -
02/13/2016 15:05 Dry 59.0F - - - - - - - - 0 mhos 1 - None None - -
02/13/2016 14:56 Dry 57.2F - - - - - - - - 0 mhos 1 - None None - -
02/13/2016 14:55 Dry 57.2F - - - - - - - - 0 mhos 1 - None None - -
02/13/2016 14:45 Dry 57.7F - - - - - - - - 0 mhos 1 - None None - -
02/13/2016 14:41 Dry 56.5F - - - - - - - - 0 mhos 1 - None None - -
02/13/2016 14:35 Dry 54.5F - - - - - - - - 0 mhos 1 - None None - -
02/13/2016 14:26 Dry 49.6F - - - - - - - - 0 mhos 1 - None None - -
02/13/2016 14:25 Dry 49.6F - - - - - - - - 0 mhos 1 - None None - -
02/13/2016 14:15 Dry 45.7F - - - - - - - - 0 mhos 1 - None None - -
Date/Time
(MST)
Sf
Temp Chem Water Layer Surface Precipitation
Sfc Pvt Sub Frz Factor Pct Dpth DpthThk IcePct Cond Salin FI Type Intens Accum Rate
02/13/2016 14:11 Dry 39.0F - - - - - - - - 0 mhos 1 - None None - -
02/13/2016 14:05 Dry 39.4F - - - - - - - - 0 mhos 1 - None None - -
02/13/2016 13:56 Dry 40.1F - - - - - - - - 0 mhos 1 - None None - -
02/13/2016 13:55 Dry 40.1F - - - - - - - - 0 mhos 1 - None None - -
02/13/2016 13:45 Dry 39.4F - - - - - - - - 0 mhos 1 - None None - -
02/13/2016 13:41 Dry 39.2F - - - - - - - - 0 mhos 1 - None None - -
02/13/2016 13:35 Dry 39.4F - - - - - - - - 0 mhos 1 - None None - -
02/13/2016 13:26 Dry 39.2F - - - - - - - - 0 mhos 1 - None None - -
02/13/2016 13:25 Dry 39.2F - - - - - - - - 0 mhos 1 - None None - -
02/13/2016 13:15 Dry 39.0F - - - - - - - - 0 mhos 1 - None None - -
02/13/2016 13:11 Dry 38.8F - - - - - - - - 0 mhos 1 - None None - -
02/13/2016 13:05 Dry 38.8F - - - - - - - - 0 mhos 1 - None None - -
02/13/2016 12:56 Dry 38.7F - - - - - - - - 0 mhos 1 - None None - -
02/13/2016 12:55 Dry 38.7F - - - - - - - - 0 mhos 1 - None None - -
02/13/2016 12:45 Dry 37.0F - - - - - - - - 0 mhos 0 - None None - -
Date/Time
(MST)
Sf
Temp Chem Water Layer Surface Precipitation
Sfc Pvt Sub Frz Factor Pct Dpth DpthThk IcePct Cond Salin FI Type Intens Accum Rate
02/13/2016 12:41 Dry 36.9F - - - - - - - - 0 mhos 0 - None None - -
02/13/2016 12:35 Dry 36.3F - - - - - - - - 0 mhos 0 - None None - -
02/13/2016 12:26 Dry 35.8F - - - - - - - - 0 mhos 1 - None None - -
02/13/2016 12:25 Dry 35.8F - - - - - - - - 0 mhos 1 - None None - -
02/13/2016 12:15 Dry 36.5F - - - - - - - - 0 mhos 4 - None None - -
02/13/2016 12:11 Dry 36.5F - - - - - - - - 0 mhos 5 - None None - -
02/13/2016 12:05 Dry 36.3F - - - - - - - - 0 mhos 10 - None None - -
02/13/2016 11:56 Dry 36.1F - - - - - - - - 0 mhos 19 - None None - -
02/13/2016 11:55 Trace Moisture 35.6F - - - 20 - - - - 0 mhos 22 - None None - -
02/13/2016 11:45 Wet 34.5F - - 32F 5 0% 0.00 in - 0% 1 mhos 57 - None None - -
02/13/2016 11:41 Wet 34.0F - - 32F 5 0% 0.00 in - 0% 1 mhos 65 - None None - -
02/13/2016 11:34 Ice Warning 30.4F - - 32F 5 0% - - 99% 0 mhos 21 - None None - -
02/13/2016 11:26 Ice Warning 29.7F - - 32F 10 0% - - 100% 0 mhos 20 - None None - -
02/13/2016 11:24 Ice Warning 29.5F - - 32F 10 0% - - 100% 0 mhos 20 - None None - -
02/13/2016 11:14 Ice Warning 28.8F - - 32F 30 0% - - 100% 0 mhos 20 - None None - -
Date/Time
(MST)
Sf
Temp Chem Water Layer Surface Precipitation
Sfc Pvt Sub Frz Factor Pct Dpth DpthThk IcePct Cond Salin FI Type Intens Accum Rate
02/13/2016 11:11 Ice Warning 28.4F - - 32F 30 0% - - 100% 0 mhos 20 - None None - -
02/13/2016 11:04 Ice Warning 28.4F - - 32F 60 0% - - 100% 0 mhos 21 - None None - -
02/13/2016 10:56 Ice Warning 28.6F - - 32F 85 0% - - 100% 0 mhos 20 - None None - -
02/13/2016 10:54 Ice Warning 28.6F - - 32F 85 0% - - 100% 0 mhos 19 - None None - -
02/13/2016 10:44 Ice Warning 28.9F - - 32F 85 0% - - 100% 0 mhos 18 - None None - -
02/13/2016 10:41 Ice Warning 28.8F - - 32F 75 0% - - 100% 0 mhos 17 - None None - -
02/13/2016 10:34 Ice Warning 28.9F - - 32F 80 0% - - 100% 0 mhos 17 - None None - -
02/13/2016 10:26 Ice Warning 28.9F - - 32F 70 0% - - 100% 0 mhos 15 - None None - -
02/13/2016 10:24 Ice Warning 29.1F - - 32F 70 0% - - 100% 0 mhos 14 - None None - -
02/13/2016 10:14 Ice Warning 29.1F - - 32F 65 0% - - 100% 0 mhos 12 - None None - -
02/13/2016 10:11 Ice Warning 29.3F - - 32F 60 0% - - 100% 0 mhos 11 - None None - -
02/13/2016 10:04 Ice Warning 29.8F - - 32F 70 0% - - 100% 0 mhos 10 - None None - -
02/13/2016 09:56 Ice Warning 30.4F - - 32F 70 0% - - 100% 0 mhos 11 - None None - -
02/13/2016 09:54 Ice Warning 30.7F - - 32F 95 0% - - 99% 0 mhos 26 - None None - -
Change End Date:

Copyright © 1998-2015 Vaisala, Inc.
All Rights Reserved
Send comments about the data to:
SCAN Web ® is a registered trademark of Vaisala, Inc.
SCAN Web Version 6.0